, AK

(GMT )
Portage Glacier

Weather History for PATO - December, 2017

Change the Weather History Date:

Thursday, December 7, 2017

  Actual Average Record
Temperature  
Mean Temperature 36 °F -  
Max Temperature 44 °F - - ()
Min Temperature 28 °F - - ()
Degree Days  
Heating Degree Days 29    
Moisture  
Dew Point 34 °F    
Average Humidity 86    
Maximum Humidity 96    
Minimum Humidity 76    
Precipitation  
Precipitation 3.08 in - - ()
Sea Level Pressure  
Sea Level Pressure 29.59 in    
Wind  
Wind Speed 10 mph (SE)    
Max Wind Speed 29 mph    
Max Gust Speed 55 mph    
Visibility 3 miles    
Events Rain    
Averages and records for this station are not official NWS values.
T = Trace of Precipitation, MM = Missing Value Source: NWS Daily Summary

Daily Weather History Graph

Daily Weather History Graph

Search for Another Location

Airport or City:

Astronomy

Dec. 07, 2017 Rise Set
Actual Time 9:49 AM AKST 3:44 PM AKST
Civil Twilight 8:51 AM AKST 4:42 PM AKST
Nautical Twilight 7:53 AM AKST 5:40 PM AKST
Astronomical Twilight 7:00 AM AKST 6:32 PM AKST
Moon 9:22 PM AKST (12/7) 1:00 PM AKST (12/7)
Length of Visible Light 7h 51m
Length of Day
5h 54m
Waning Gibbous, 76% of the Moon is Illuminated
Dec 7
Waning Gibbous
Dec 9
Last Quarter
Dec 17
New
Dec 26
First Quarter
Jan 1
Full

Hourly Weather History & Observations

Time (AKST) Temp. Windchill Dew Point Humidity Pressure Visibility Wind Dir Wind Speed Gust Speed Precip Events Conditions
12:12 AM 28.9 °F - 28.0 °F 96% 29.87 in 4.0 mi Calm Calm - 0.01 in   Overcast
12:34 AM 30.0 °F - 28.9 °F 96% 29.87 in 3.0 mi Calm Calm - 0.02 in Rain Light Freezing Rain
12:53 AM 30.0 °F 26.5 °F 28.9 °F 96% 29.86 in 5.0 mi West 3.5 mph - 0.03 in Rain Light Freezing Rain
1:22 AM 33.1 °F 28.7 °F 30.0 °F 89% 29.85 in 5.0 mi Variable 4.6 mph - 0.03 in Rain Light Freezing Rain
1:29 AM 32.0 °F 28.7 °F 30.0 °F 92% 29.85 in 5.0 mi West 3.5 mph - 0.03 in Rain Light Freezing Rain
1:53 AM 34.0 °F 28.8 °F 30.9 °F 89% 29.84 in 5.0 mi Variable 5.8 mph - 0.05 in Rain Light Freezing Rain
2:03 AM 35.1 °F 30.1 °F 32.0 °F 89% 29.83 in 6.0 mi Variable 5.8 mph - 0.01 in Rain Light Rain
2:53 AM 37.0 °F 31.6 °F 33.1 °F 86% 29.81 in 8.0 mi Variable 6.9 mph 17.3 mph 0.05 in Rain Light Rain
3:53 AM 36.0 °F 28.5 °F 33.1 °F 89% 29.78 in 4.0 mi SSE 10.4 mph 18.4 mph 0.07 in Rain Light Rain
4:53 AM 35.1 °F 26.4 °F 32.0 °F 89% 29.74 in 4.0 mi SSE 12.7 mph 25.3 mph 0.04 in Rain Light Rain
5:53 AM 35.1 °F 26.4 °F 33.1 °F 92% 29.71 in 3.0 mi SSE 12.7 mph 27.6 mph 0.08 in Rain Rain
6:53 AM 35.1 °F 26.4 °F 33.1 °F 92% 29.68 in 4.0 mi SSE 12.7 mph 34.5 mph 0.11 in Rain Rain
7:53 AM 37.0 °F 27.7 °F 34.0 °F 89% 29.67 in 3.0 mi SSE 16.1 mph 32.2 mph 0.10 in Rain Rain
8:53 AM 37.9 °F 29.2 °F 35.1 °F 89% 29.63 in 3.0 mi SSE 15.0 mph 42.6 mph 0.15 in Rain Rain
9:06 AM 39.0 °F - 36.0 °F 89% 29.63 in 2.5 mi North - - 0.06 in Rain Heavy Rain
9:53 AM 44.1 °F 35.4 °F 37.0 °F 76% 29.62 in 2.5 mi ESE 21.9 mph 46.0 mph 0.29 in Rain Heavy Rain
10:06 AM 44.1 °F 37.4 °F 37.0 °F 76% 29.61 in 3.0 mi ESE 13.8 mph 46.0 mph 0.05 in Rain Rain
10:21 AM 43.0 °F 34.5 °F 37.0 °F 80% 29.60 in 2.0 mi ESE 19.6 mph 42.6 mph 0.10 in Rain Rain
10:31 AM 43.0 °F 32.7 °F 37.0 °F 80% 29.59 in 1.8 mi ESE 28.8 mph 54.1 mph 0.14 in Rain Rain
10:53 AM 44.1 °F 34.8 °F 37.0 °F 76% 29.60 in 1.5 mi ESE 25.3 mph 48.3 mph 0.23 in Rain Heavy Rain
11:16 AM 44.1 °F 34.6 °F 37.0 °F 76% 29.58 in 2.0 mi ENE 26.5 mph 49.5 mph 0.09 in Rain Rain
11:23 AM 43.0 °F - 37.0 °F 80% 29.58 in 1.8 mi North - - 0.12 in Rain Rain
11:44 AM 43.0 °F 35.4 °F 37.0 °F 80% 29.56 in 1.2 mi ESE 16.1 mph 40.3 mph 0.22 in Rain Heavy Rain
11:53 AM 43.0 °F 34.2 °F 37.0 °F 80% 29.57 in 1.2 mi East 20.7 mph 48.3 mph 0.27 in Rain Heavy Rain
12:53 PM 41.0 °F - 35.1 °F 79% 29.57 in 1.2 mi North - - 0.26 in Rain Heavy Rain
1:53 PM 39.9 °F 30.2 °F 34.0 °F 79% 29.53 in 1.2 mi East 20.7 mph 55.2 mph 0.25 in Rain Rain
2:53 PM 39.0 °F 30.3 °F 33.1 °F 79% 29.50 in 2.0 mi SE 16.1 mph 39.1 mph 0.24 in Rain Rain
3:31 PM 37.0 °F 27.7 °F 33.1 °F 86% 29.47 in 1.8 mi SSE 16.1 mph 42.6 mph 0.11 in Rain Rain
3:40 PM 37.0 °F 27.7 °F 33.1 °F 86% 29.47 in 2.0 mi SE 16.1 mph 33.4 mph 0.13 in Rain Rain
3:53 PM 36.0 °F 25.6 °F 32.0 °F 86% 29.46 in 2.5 mi SE 18.4 mph 38.0 mph 0.17 in Rain Rain
4:31 PM 36.0 °F 26.0 °F 32.0 °F 86% 29.43 in 3.0 mi SE 17.3 mph 39.1 mph 0.12 in Rain Rain
4:53 PM 36.0 °F 26.7 °F 32.0 °F 86% 29.42 in 3.0 mi SSE 15.0 mph 44.9 mph 0.17 in Rain Rain
5:18 PM 36.0 °F 26.7 °F 33.1 °F 89% 29.41 in 2.5 mi SE 15.0 mph 35.7 mph 0.06 in Rain Rain
5:29 PM 37.0 °F 27.7 °F 33.1 °F 86% 29.41 in 3.0 mi SE 16.1 mph 32.2 mph 0.08 in Rain Rain
5:53 PM 37.0 °F 27.4 °F 33.1 °F 86% 29.42 in 3.0 mi SE 17.3 mph 35.7 mph 0.12 in Rain Rain
6:53 PM 35.1 °F 25.9 °F 33.1 °F 92% 29.43 in 2.5 mi SE 13.8 mph 27.6 mph 0.16 in Rain Rain
7:05 PM 36.0 °F 28.0 °F 33.1 °F 89% 29.42 in 3.0 mi ESE 11.5 mph 31.1 mph 0.03 in Rain Rain
7:53 PM 37.0 °F 28.5 °F 33.1 °F 86% 29.42 in 4.0 mi SE 13.8 mph 29.9 mph 0.13 in Rain Rain
8:53 PM 37.9 °F 30.0 °F 35.1 °F 89% 29.44 in 8.0 mi SSE 12.7 mph 25.3 mph 0.10 in Rain Light Rain
9:44 PM 39.0 °F 32.3 °F 36.0 °F 89% 29.46 in 3.0 mi SSE 10.4 mph 23.0 mph 0.01 in Rain Light Rain
9:53 PM 39.0 °F 32.8 °F 37.0 °F 93% 29.46 in 3.0 mi SSE 9.2 mph 24.2 mph 0.01 in Rain Light Rain
10:04 PM 39.9 °F 33.4 °F 37.0 °F 89% 29.45 in 5.0 mi SSE 10.4 mph 26.5 mph 0.00 in Rain Light Rain
10:53 PM 39.9 °F 33.9 °F 37.9 °F 93% 29.47 in 5.0 mi SE 9.2 mph 21.9 mph 0.00 in Rain Light Rain
11:53 PM 39.9 °F 32.5 °F 37.0 °F 89% 29.50 in 6.0 mi SSE 12.7 mph 24.2 mph 0.00 in   Overcast